GE47C EKCH-EKBI

Flight info

Callsign GE47C
Flight time N/A
Altitude 4000
Route VFR
Aircraft B60T/L-VGD/C

Departure

Time 2026-05-05 07:51
Airport Copenhagen Kastrup Airport (EKCH)

Arrival

Time N/A
Airport Billund Airport (EKBI)
Time Latitude Longitude Altitude Speed Heading
2026-05-05 07:20 55.62860 12.63170 13 ft 0 kts 17°
2026-05-05 07:38 55.62861 12.63170 13 ft 0 kts 17°
2026-05-05 07:39 55.62861 12.63171 13 ft 0 kts 17°
2026-05-05 07:43 55.62862 12.63172 14 ft 2 kts 33°
2026-05-05 07:43 55.62847 12.63183 13 ft 6 kts 207°
2026-05-05 07:44 55.62787 12.63177 14 ft 13 kts 134°
2026-05-05 07:44 55.62722 12.63345 12 ft 18 kts 122°
2026-05-05 07:44 55.62676 12.63529 16 ft 17 kts 98°
2026-05-05 07:44 55.62667 12.63754 18 ft 20 kts 97°
2026-05-05 07:45 55.62610 12.63967 19 ft 16 kts 123°
2026-05-05 07:45 55.62544 12.64147 16 ft 22 kts 123°
2026-05-05 07:45 55.62442 12.64399 13 ft 28 kts 128°
2026-05-05 07:45 55.62347 12.64644 15 ft 20 kts 124°
2026-05-05 07:46 55.62288 12.64807 19 ft 13 kts 122°
2026-05-05 07:46 55.62241 12.64934 18 ft 15 kts 123°
2026-05-05 07:46 55.62186 12.65133 18 ft 17 kts 66°
2026-05-05 07:46 55.62283 12.65232 16 ft 18 kts 61°
2026-05-05 07:47 55.62295 12.65498 13 ft 25 kts 89°
2026-05-05 07:47 55.62301 12.65770 10 ft 24 kts 89°
2026-05-05 07:47 55.62322 12.66018 7 ft 20 kts 78°
2026-05-05 07:47 55.62222 12.66166 9 ft 19 kts 158°
2026-05-05 07:48 55.62119 12.66242 10 ft 13 kts 160°
2026-05-05 07:48 55.62013 12.66305 13 ft 16 kts 159°
2026-05-05 07:48 55.61912 12.66363 11 ft 15 kts 161°
2026-05-05 07:48 55.61818 12.66416 11 ft 13 kts 169°
2026-05-05 07:49 55.61743 12.66393 13 ft 10 kts 200°
2026-05-05 07:49 55.61693 12.66339 14 ft 8 kts 221°
2026-05-05 07:49 55.61663 12.66276 14 ft 5 kts 237°
2026-05-05 07:49 55.61658 12.66262 14 ft 3 kts 240°
2026-05-05 07:50 55.61641 12.66097 17 ft 16 kts 270°
2026-05-05 07:50 55.61681 12.65906 18 ft 26 kts 304°
2026-05-05 07:50 55.61948 12.65183 18 ft 111 kts 303°
2026-05-05 07:50 55.62406 12.63939 381 ft 127 kts 303°
2026-05-05 07:51 55.62898 12.62551 807 ft 142 kts 303°
2026-05-05 07:51 55.63457 12.60981 1113 ft 155 kts 304°
2026-05-05 07:51 55.64033 12.59328 1214 ft 160 kts 303°
2026-05-05 07:51 55.64450 12.57488 1259 ft 165 kts 281°
2026-05-05 07:52 55.64645 12.55468 1275 ft 167 kts 283°
2026-05-05 07:52 55.64866 12.53443 1301 ft 168 kts 283°
2026-05-05 07:52 55.65095 12.51406 1302 ft 170 kts 283°
2026-05-05 07:52 55.65327 12.49387 1308 ft 169 kts 284°
2026-05-05 07:53 55.65561 12.47340 1306 ft 170 kts 283°
2026-05-05 07:53 55.65797 12.45286 1290 ft 170 kts 284°
2026-05-05 07:53 55.66033 12.43245 1292 ft 169 kts 285°
2026-05-05 07:53 55.66333 12.41233 1287 ft 169 kts 289°
2026-05-05 07:54 55.66691 12.39264 1281 ft 167 kts 291°
2026-05-05 07:54 55.67084 12.37337 1299 ft 166 kts 292°
2026-05-05 07:54 55.67493 12.35404 1298 ft 170 kts 293°
2026-05-05 07:54 55.67933 12.33386 1297 ft 179 kts 293°
2026-05-05 07:55 55.68388 12.31323 1299 ft 180 kts 293°
2026-05-05 07:55 55.68843 12.29255 1314 ft 181 kts 293°
2026-05-05 07:55 55.69174 12.27107 1304 ft 181 kts 282°
2026-05-05 07:55 55.69368 12.24902 1297 ft 182 kts 281°
2026-05-05 07:56 55.69556 12.22700 1298 ft 180 kts 281°
2026-05-05 07:56 55.69715 12.20497 1300 ft 180 kts 280°
2026-05-05 07:56 55.69868 12.18286 1310 ft 181 kts 281°
2026-05-05 07:56 55.70017 12.16064 1304 ft 182 kts 279°
2026-05-05 07:57 55.70184 12.13853 1305 ft 180 kts 282°
2026-05-05 07:57 55.70356 12.11646 1293 ft 181 kts 280°
2026-05-05 07:57 55.70544 12.09440 1285 ft 180 kts 283°
2026-05-05 07:57 55.70738 12.07250 1293 ft 180 kts 281°
2026-05-05 07:58 55.70854 12.05046 1284 ft 179 kts 275°
2026-05-05 07:58 55.70865 12.02829 1302 ft 181 kts 272°
2026-05-05 07:58 55.70836 12.00607 1296 ft 180 kts 271°
2026-05-05 07:58 55.70807 11.98385 1300 ft 181 kts 272°
2026-05-05 07:59 55.70771 11.96160 1310 ft 181 kts 271°
2026-05-05 07:59 55.70735 11.93923 1299 ft 182 kts 270°
2026-05-05 07:59 55.70713 11.91679 1303 ft 182 kts 272°
2026-05-05 07:59 55.70674 11.89425 1313 ft 184 kts 271°
2026-05-05 08:00 55.70638 11.87161 1307 ft 184 kts 272°
2026-05-05 08:00 55.70601 11.84897 1317 ft 184 kts 272°
2026-05-05 08:00 55.70556 11.82622 1302 ft 184 kts 271°
2026-05-05 08:00 55.70515 11.80351 1299 ft 185 kts 271°
2026-05-05 08:01 55.70483 11.78114 1311 ft 185 kts 271°
2026-05-05 08:01 55.70451 11.75884 1302 ft 185 kts 271°
2026-05-05 08:01 55.70421 11.73604 1315 ft 185 kts 272°
2026-05-05 08:01 55.70380 11.71329 1298 ft 185 kts 271°
2026-05-05 08:02 55.70350 11.69059 1299 ft 184 kts 271°
2026-05-05 08:02 55.70310 11.66795 1290 ft 183 kts 271°
2026-05-05 08:02 55.70266 11.64531 1301 ft 184 kts 269°
2026-05-05 08:02 55.70225 11.62265 1305 ft 184 kts 271°
2026-05-05 08:03 55.70204 11.60026 1311 ft 185 kts 272°
2026-05-05 08:03 55.70169 11.57753 1296 ft 184 kts 271°
2026-05-05 08:03 55.70131 11.55481 1309 ft 185 kts 271°
2026-05-05 08:03 55.70089 11.53209 1306 ft 185 kts 271°
2026-05-05 08:04 55.70043 11.50934 1307 ft 184 kts 271°
2026-05-05 08:04 55.69992 11.48668 1310 ft 184 kts 271°
2026-05-05 08:04 55.69941 11.46395 1312 ft 185 kts 271°
2026-05-05 08:04 55.69899 11.44123 1299 ft 184 kts 270°
2026-05-05 08:05 55.69865 11.41863 1300 ft 183 kts 272°
2026-05-05 08:05 55.69830 11.39614 1303 ft 183 kts 272°
2026-05-05 08:05 55.69789 11.37360 1309 ft 183 kts 270°
2026-05-05 08:05 55.69747 11.35099 1308 ft 183 kts 271°
2026-05-05 08:06 55.69714 11.32837 1311 ft 184 kts 271°
2026-05-05 08:06 55.69688 11.30569 1306 ft 184 kts 271°
2026-05-05 08:06 55.69662 11.28300 1305 ft 184 kts 270°
2026-05-05 08:06 55.69634 11.26026 1307 ft 185 kts 271°
2026-05-05 08:07 55.69602 11.23750 1305 ft 184 kts 271°
2026-05-05 08:07 55.69562 11.21484 1310 ft 184 kts 271°
2026-05-05 08:07 55.69514 11.19213 1310 ft 184 kts 271°
2026-05-05 08:07 55.69468 11.16948 1306 ft 184 kts 270°
2026-05-05 08:08 55.69424 11.14686 1305 ft 184 kts 271°
2026-05-05 08:08 55.69379 11.12426 1314 ft 184 kts 271°
2026-05-05 08:08 55.69332 11.10160 1314 ft 184 kts 271°
2026-05-05 08:08 55.69286 11.07892 1312 ft 184 kts 271°
2026-05-05 08:09 55.69240 11.05628 1311 ft 184 kts 271°
2026-05-05 08:09 55.69201 11.03371 1305 ft 183 kts 271°
2026-05-05 08:09 55.69158 11.01118 1301 ft 183 kts 270°
2026-05-05 08:09 55.69118 10.98873 1299 ft 182 kts 271°
2026-05-05 08:10 55.69080 10.96628 1304 ft 182 kts 271°
2026-05-05 08:10 55.69040 10.94387 1307 ft 182 kts 271°
2026-05-05 08:10 55.69002 10.92150 1308 ft 182 kts 271°
2026-05-05 08:10 55.68962 10.89908 1303 ft 182 kts 271°
2026-05-05 08:11 55.68924 10.87670 1329 ft 181 kts 271°
2026-05-05 08:11 55.68887 10.85506 1845 ft 176 kts 271°
2026-05-05 08:11 55.68839 10.83338 2417 ft 176 kts 271°
2026-05-05 08:11 55.68786 10.81140 2975 ft 176 kts 271°
2026-05-05 08:12 55.68737 10.78969 3530 ft 176 kts 270°
2026-05-05 08:12 55.68694 10.76825 4086 ft 175 kts 271°
2026-05-05 08:12 55.68656 10.74691 4558 ft 179 kts 271°
2026-05-05 08:12 55.68626 10.72437 4815 ft 188 kts 270°
2026-05-05 08:13 55.68607 10.70065 4916 ft 197 kts 270°
2026-05-05 08:13 55.68595 10.67607 4962 ft 202 kts 271°
2026-05-05 08:13 55.68587 10.65105 4983 ft 204 kts 271°
2026-05-05 08:13 55.68578 10.62588 4993 ft 205 kts 271°
2026-05-05 08:14 55.68567 10.60117 4997 ft 188 kts 271°
2026-05-05 08:14 55.68549 10.57924 4991 ft 171 kts 270°
2026-05-05 08:14 55.68531 10.55852 4994 ft 166 kts 271°
2026-05-05 08:14 55.68516 10.53822 5002 ft 164 kts 271°
2026-05-05 08:15 55.68500 10.51808 5008 ft 163 kts 271°
2026-05-05 08:15 55.68487 10.49796 5011 ft 163 kts 271°
2026-05-05 08:15 55.68474 10.47784 5013 ft 163 kts 271°
2026-05-05 08:15 55.68460 10.45774 5012 ft 163 kts 271°
2026-05-05 08:16 55.68443 10.43771 5010 ft 163 kts 270°
2026-05-05 08:16 55.68427 10.41768 5007 ft 162 kts 271°
2026-05-05 08:16 55.68411 10.39774 5003 ft 162 kts 271°
2026-05-05 08:16 55.68680 10.37880 5004 ft 160 kts 300°
2026-05-05 08:17 55.69320 10.36271 5014 ft 159 kts 306°
2026-05-05 08:17 55.69939 10.34639 5006 ft 159 kts 300°
2026-05-05 08:17 55.70425 10.32875 5004 ft 160 kts 292°
2026-05-05 08:17 55.70773 10.31003 5003 ft 160 kts 285°
2026-05-05 08:18 55.71007 10.29073 5002 ft 160 kts 281°
2026-05-05 08:18 55.71117 10.27781 5003 ft 160 kts 278°
2026-05-05 08:18 55.71238 10.25823 5002 ft 159 kts 276°
2026-05-05 08:18 55.71326 10.23862 5004 ft 160 kts 275°
2026-05-05 08:19 55.71396 10.21899 5005 ft 159 kts 275°
2026-05-05 08:19 55.71457 10.19935 5005 ft 159 kts 274°
2026-05-05 08:19 55.71515 10.17971 5005 ft 160 kts 274°
2026-05-05 08:19 55.71571 10.16001 5006 ft 160 kts 274°
2026-05-05 08:20 55.71627 10.14027 5008 ft 160 kts 274°
2026-05-05 08:20 55.71685 10.12040 4997 ft 162 kts 275°
2026-05-05 08:20 55.71741 10.10037 4999 ft 163 kts 275°
2026-05-05 08:20 55.71798 10.08030 5002 ft 163 kts 275°
2026-05-05 08:21 55.71853 10.06026 5002 ft 163 kts 275°
2026-05-05 08:21 55.71907 10.04017 5004 ft 163 kts 275°
2026-05-05 08:21 55.71957 10.02008 5003 ft 163 kts 275°
2026-05-05 08:21 55.72010 10.00003 5001 ft 163 kts 275°
2026-05-05 08:22 55.72064 9.97997 5004 ft 163 kts 275°
2026-05-05 08:22 55.72116 9.95995 5004 ft 162 kts 275°
2026-05-05 08:22 55.72171 9.94001 4999 ft 162 kts 275°
2026-05-05 08:22 55.72225 9.92016 5000 ft 161 kts 275°
2026-05-05 08:23 55.72277 9.90032 4996 ft 161 kts 275°
2026-05-05 08:23 55.72330 9.88045 4999 ft 161 kts 275°
2026-05-05 08:23 55.72382 9.86059 4997 ft 161 kts 275°
2026-05-05 08:23 55.72435 9.84075 4999 ft 161 kts 275°
2026-05-05 08:24 55.72492 9.82126 5009 ft 187 kts 275°
2026-05-05 08:24 55.72565 9.79688 4785 ft 205 kts 275°
2026-05-05 08:24 55.72621 9.77459 4424 ft 193 kts 275°
2026-05-05 08:24 55.72678 9.75121 4073 ft 187 kts 275°
2026-05-05 08:25 55.72734 9.72825 3712 ft 186 kts 276°
2026-05-05 08:25 55.72793 9.70545 3374 ft 185 kts 276°
2026-05-05 08:25 55.72850 9.68273 3061 ft 183 kts 276°
2026-05-05 08:25 55.72903 9.66090 3025 ft 173 kts 276°
2026-05-05 08:26 55.72952 9.63992 3017 ft 169 kts 276°
2026-05-05 08:26 55.73002 9.61921 3009 ft 167 kts 277°
2026-05-05 08:26 55.73047 9.59868 3003 ft 166 kts 275°
2026-05-05 08:26 55.73064 9.57821 3005 ft 166 kts 274°
2026-05-05 08:27 55.73078 9.55779 3004 ft 165 kts 275°
2026-05-05 08:27 55.73083 9.53745 3000 ft 165 kts 273°
2026-05-05 08:27 55.73091 9.51717 3003 ft 164 kts 274°
2026-05-05 08:27 55.73117 9.49690 3008 ft 164 kts 275°
2026-05-05 08:28 55.73154 9.47664 3010 ft 165 kts 275°
2026-05-05 08:28 55.73199 9.45632 3011 ft 165 kts 276°
2026-05-05 08:28 55.73245 9.43607 3009 ft 164 kts 275°
2026-05-05 08:28 55.73292 9.41582 3003 ft 164 kts 276°
2026-05-05 08:29 55.73338 9.39574 2998 ft 162 kts 275°
2026-05-05 08:29 55.73382 9.37582 3002 ft 162 kts 275°
2026-05-05 08:29 55.73426 9.35592 3022 ft 161 kts 275°
2026-05-05 08:30 55.73514 9.31624 3023 ft 161 kts 276°
2026-05-05 08:30 55.73557 9.29644 3024 ft 161 kts 275°